Location: Unspecified
(52.4292°N, 19.3359°E)
Time: 14:34:13
(UTC+01:00)

A-11 Canister half - Pass Details

Date: 16 October 2025
Orbit: 1526 x 1682 km, 47.3° (Epoch: 13 November)

Event Time Altitude Azimuth Distance (km) Brightness Sun altitude
Exits shadow 02:59:20 36° 141° (SE) 2,237 9.7 -36.8°
Drops below altitude 10° 03:07:09 10° 83° (E) 3,700 11.6 -35.9°
Sets 03:10:29 0° 76° (ENE) 4,692 12.4 -35.5°
